Location: Al A�q?b
(24.2500°N, 32.9000°E)
Time: 22:40:40
(UTC+00:00)

Daily predictions for brighter satellites

Satellite Brightness Start Highest point End
(mag) Time Altitude Azimuth Time Altitude Azimuth Time Altitude Azimuth
Cosmos 2082 Rocket 2.5 15:12:31 10° SSW 15:18:11 73° WNW 15:23:51 10° NNE
NOSS 3-1 (C) 4.3 15:10:20 10° NNW 15:18:37 75° ENE 15:27:45 10° SSE
Sakura Rocket 4.2 15:11:56 10° WNW 15:19:03 67° SSW 15:24:05 10° ESE
Sich 1 3.7 15:15:18 10° NNE 15:19:12 33° E 15:23:06 10° SSE
Cosmos 1812 3.1 15:15:42 10° SSE 15:19:21 43° E 15:23:00 10° NNE
Cosmos 1092 Rocket 4.1 15:13:45 10° N 15:20:00 60° E 15:26:11 10° SSE
CORIOLIS 4.3 15:15:21 10° SSE 15:20:35 55° ENE 15:25:50 10° N
SMAP 3.1 15:16:13 10° SSE 15:20:48 65° ENE 15:25:24 10° N
Cosmos 1805 Rocket 3.8 15:16:51 10° N 15:21:01 47° E 15:25:12 10° SSE
MOS 1-B Rocket 4.4 15:14:48 10° NNE 15:21:07 67° ESE 15:28:31 10° S
Cosmos 1939 Rocket 2.9 15:20:35 10° SSE 15:24:42 87° ENE 15:28:49 10° N
CZ-4B DEB 4.4 15:21:08 10° SSE 15:26:29 52° ENE 15:31:47 10° N
Meteor 1-25 Rocket 4.2 15:22:14 10° N 15:27:50 77° E 15:33:29 10° S
Cosmos 2084 4.2 15:23:59 10° N 15:28:03 34° ENE 15:32:14 10° SE
Cosmos 2279 Rocket 4.0 15:28:39 10° S 15:34:47 65° E 15:40:56 10° NNE
AQUARIUS 4.1 15:30:55 10° SSE 15:35:23 81° ENE 15:39:53 10° N
ARGOS 4.1 15:32:56 10° SE 15:37:16 25° ENE 15:41:35 10° NNE
BREEZE-M DEB (TANK) 4.1 15:35:18 10° S 15:38:28 18° SE 15:40:40 10° E
Cosmos 44 3.9 15:34:43 10° NW 15:39:08 56° WSW 15:43:20 10° S
Cosmos 1570 Rocket 4.1 15:34:02 10° SSW 15:39:18 85° WNW 15:44:33 10° NNE
Cosmos 1627 Rocket 4.4 15:35:11 10° N 15:41:20 79° E 15:47:25 10° S
Aurora 2 Rocket 3.1 15:39:35 10° W 15:44:18 87° S 15:51:14 10° E
SWIFT 3.2 15:42:43 10° W 15:46:46 45° S 15:50:50 10° ESE
Cosmos 1602 4.2 15:44:14 10° NNW 15:48:04 64° W 15:51:54 10° S
Cosmos 921 Rocket 3.0 15:47:07 10° S 15:51:11 57° E 15:55:17 10° NNE
Meteor 2-6 Rocket 4.2 15:46:22 10° S 15:52:13 74° E 15:57:54 10° NNE
Meteor 2-21 4.4 15:46:49 10° N 15:52:53 85° E 15:58:54 10° S
COSMO-SKYMED 1 2.8 15:50:29 10° N 15:54:48 74° WNW 15:59:07 10° SSW
PAYLOAD B 4.2 15:50:27 10° SSE 15:56:02 78° ENE 16:01:38 10° N
CZ-2C R/B 2.2 15:54:43 10° W 15:58:43 38° NNW 16:01:16 18° NE
CZ-2D R/B 3.3 15:55:02 10° S 15:58:51 79° WSW 16:02:41 10° NNW
CZ-4B R/B 3.3 15:53:40 10° SSE 15:58:58 53° ENE 16:04:12 10° N
APEX 3.4 15:55:21 10° SSW 16:00:11 75° ESE 16:03:29 14° NNE
Meteosat 1 Rocket2 4.4 15:58:11 10° SSW 16:01:24 22° SSE 16:03:14 15° ESE
Cosmos 1633 Rocket 3.2 16:00:02 10° N 16:04:17 49° E 16:08:31 10° SSE
Cosmos 1898 Rocket 4.2 16:00:16 10° NNW 16:05:21 56° WSW 16:10:23 10° S
Cosmos 1151 Rocket 4.2 16:01:26 10° SSW 16:05:31 45° W 16:09:40 10° N
Okean O Rocket 1.8 16:03:23 10° SSE 16:07:38 48° ENE 16:11:55 10° N
Meteor 2-15 4.4 16:01:35 10° S 16:07:41 76° E 16:13:46 10° N
CZ-2C R/B 3.3 16:05:04 10° N 16:10:05 54° WNW 16:15:06 10° SSW
BREEZE M DEB (TANK) 4.0 16:00:00 10° NW 16:13:39 47° NNE 16:16:13 26° E
Meteor 1-10 Rocket 4.2 16:07:56 10° S 16:13:48 83° E 16:19:33 10° N
Cosmos 1867 3.6 16:08:39 10° S 16:13:57 58° ESE 16:17:10 24° NE
DEBRIS 4.3 16:14:17 10° WNW 16:15:52 17° NNW 16:17:08 14° N
H-2A R/B 2.4 16:11:09 10° S 16:16:24 67° WSW 16:21:30 10° NNW
CZ-4 R/B 4.3 16:13:59 10° SSE 16:18:02 63° ENE 16:22:06 10° N
X-37B 2.5 16:16:01 10° W 16:18:10 19° NW 16:18:58 17° NNW
Delta 128 4.4 16:14:11 10° W 16:20:45 61° N 16:23:19 33° ENE
Delta 198 4.5 16:17:06 10° W 16:23:38 87° N 16:27:17 30° E
Aureole 3 Rocket 2.9 16:23:08 10° SSE 16:26:04 47° ESE 16:26:04 47° ESE
Meteor 1-11 Rocket 4.3 16:22:01 10° NNE 16:27:29 34° E 16:32:21 10° SE
USA 32 4.0 16:22:12 10° S 16:27:20 61° E 16:31:12 18° NNE
Feng Yun 1-1 Rocket 4.5 16:21:51 10° SSE 16:27:31 50° ENE 16:33:12 10° N
GPS 2-04 Rocket1 4.3 16:24:37 10° NW 16:27:26 21° N 16:27:26 21° N
Cosmos 1655 Rocket 4.1 16:21:54 10° N 16:28:06 53° E 16:34:14 10° SSE
CZ-4C R/B 4.2 16:26:52 13° N 16:29:37 40° WNW 16:32:49 10° SSW
Cosmos 1666 Rocket 4.2 16:25:40 10° NNW 16:29:58 56° W 16:34:14 10° S
Cosmos 1470 Rocket 3.5 16:28:53 10° N 16:33:18 62° E 16:37:43 10° SSE
DMSP B5D1-3 4.4 16:33:08 18° NNE 16:37:01 90° N 16:42:07 10° SSW
USA 276 3.7 16:33:59 10° NW 16:35:35 27° NW 16:35:35 27° NW
Genesis I 4.4 16:37:55 10° S 16:40:09 30° SSE 16:40:09 30° SSE
Tiangong 2.3 16:40:55 10° WSW 16:43:10 40° W 16:43:10 40° W
USA 234 3.1 16:41:08 16° SE 16:46:29 75° NE 16:53:00 10° NW
SL-08 RB Rocket 3.9 16:45:32 10° S 16:50:10 73° W 16:54:48 10° NNW
Cosmos 2228 Rocket 4.5 16:46:23 10° S 16:48:25 26° SSE 16:48:25 26° SSE
GPS 2-15 Rocket1 3.7 16:46:19 10° WSW 16:50:45 45° S 16:51:09 44° S
SL-24 R/B - RUBIN 2 4.0 16:46:50 10° NNW 16:50:00 48° NNW 16:50:00 48° NNW
NOSS 3-3 (A) 3.7 16:46:48 10° SSW 16:52:11 78° WNW 16:53:53 46° NNE
NOSS 3-3 (C) 3.7 16:46:53 10° SSW 16:52:17 79° WNW 16:53:57 47° NNE
Cosmos 1980 Rocket 2.9 16:53:56 10° NNW 16:59:22 51° WSW 17:04:46 10° S
H-2A R/B 2.3 17:00:18 71° W 17:00:18 71° W 17:04:35 10° SSW
CZ-4C R/B 3.0 16:59:26 10° NNW 17:07:28 70° ENE 17:11:19 37° SE
BREEZE-M DEB (TANK) 3.7 17:02:22 10° NW 17:11:16 69° WNW 17:11:16 69° WNW
VEP-3 3.7 17:24:12 10° SW 17:29:43 47° SSE 17:29:43 47° SSE
Aurora 2 Rocket 4.2 17:32:05 10° W 17:37:43 51° SSW 17:37:43 51° SSW
CZ-3C R/B 4.2 17:53:29 10° SSW 18:42:13 10° E 18:44:22 10° ENE
CZ-3C R/B 4.2 17:53:30 10° SSW 18:42:11 10° E 18:44:22 10° ENE
CZ-3C R/B 4.2 17:53:29 10° SSW 18:42:14 10° E 18:44:22 10° ENE
ATLAS 3B CENTAUR R/B 4.2 17:56:07 10° W 18:14:38 77° NNW 18:14:38 77° NNW
